Location: Unspecified
(38.7273°N, 77.0677°W)
Time: 22:38:35
(UTC-04:00)

ISS - Pass Details

Date: 30 June 2021
Orbit: 419 x 421 km, 51.6° (Epoch: 03 August)

Event Time Altitude Azimuth Distance (km) Brightness Sun altitude
Exits shadow 03:42:10 71° 235° (SW) 446 -3.9 -18.8°
Maximum altitude 03:42:29 89° 324° (NW) 423 -3.9 -18.8°
Drops below altitude 10° 03:45:52 10° 51° (NE) 1,501 0.2 -18.4°
Sets 03:47:58 0° 52° (NE) 2,368 1.6 -18.2°
